This is the latest recevied weather packets stored in our database for station/object KG0HG. If no packets are shown the sender has not sent any weather packets the latest 10 day(s).
| Time | Temp. | Humidity | Pressure | Rain* | Wind** | Luminosity | Snow |
|---|---|---|---|---|---|---|---|
| 1777895227 | 13.89° C | 79% | 1004.2 hPa | 0 mm | - | 5 W/m² | - |
| 1777894924 | 12.78° C | 86% | 1004.1 hPa | 0 mm | - | 3 W/m² | - |
| 1777894621 | 12.22° C | 90% | 1004.3 hPa | 0 mm | - | 2 W/m² | - |
| 1777894318 | 12.22° C | 92% | 1004.4 hPa | 0 mm | - | 1 W/m² | - |
| 1777894015 | 12.22° C | 92% | 1004 hPa | 0 mm | - | 1 W/m² | - |
| 1777893712 | 12.22° C | 93% | 1004.2 hPa | 0 mm | - | 0 W/m² | - |
| 1777893408 | 11.67° C | 94% | 1004.3 hPa | 0 mm | - | 0 W/m² | - |
| 1777893104 | 12.22° C | 94% | 1004.3 hPa | 0 mm | - | 0 W/m² | - |
| 1777892801 | 11.67° C | 94% | 1004.6 hPa | 0 mm | - | 0 W/m² | - |
| 1777892498 | 11.67° C | 93% | 1004.3 hPa | 0 mm | - | 0 W/m² | - |
| 1777892193 | 12.22° C | 93% | 1004.7 hPa | 0 mm | - | 0 W/m² | - |
| 1777891890 | 12.22° C | 93% | 1004.8 hPa | 0 mm | - | 0 W/m² | - |
| 1777891587 | 12.22° C | 92% | 1004.7 hPa | 0 mm | - | 0 W/m² | - |
| 1777891283 | 12.22° C | 92% | 1004.8 hPa | 0 mm | - | 0 W/m² | - |
| 1777890978 | 12.22° C | 92% | 1004.7 hPa | 0 mm | - | 0 W/m² | - |
| 1777890673 | 11.67° C | 91% | 1004.7 hPa | 0 mm | - | 0 W/m² | - |
| 1777890369 | 11.67° C | 91% | 1005.2 hPa | 0 mm | - | 0 W/m² | - |
| 1777890065 | 11.67° C | 91% | 1004.9 hPa | 0 mm | - | 0 W/m² | - |
| 1777889763 | 11.67° C | 91% | 1005.2 hPa | 0 mm | - | 0 W/m² | - |
| 1777889460 | 12.22° C | 91% | 1004.8 hPa | 0 mm | - | 0 W/m² | - |
| 1777889157 | 11.67° C | 91% | 1005.1 hPa | 0 mm | - | 0 W/m² | - |
| 1777888856 | 12.22° C | 91% | 1004.8 hPa | 0 mm | - | 0 W/m² | - |
| 1777888551 | 12.22° C | 91% | 1005 hPa | 0 mm | - | 0 W/m² | - |
| 1777888247 | 12.22° C | 90% | 1005.3 hPa | 0 mm | - | 0 W/m² | - |
| 1777887944 | 12.22° C | 90% | 1005.3 hPa | 0 mm | - | 0 W/m² | - |
* Rain latest hour (hover to see other rain measurements)
** Current wind speed in m/s (hover to see current wind gust speed)